This demonstration page uses our WeatherBlox Daily Observations layout. Learn more.

Left ArrowRight Arrow

38.20091, -84.87328

Hourly Observations for October 27, 2021

Temp ( °F °C ) Dew Point ( °F °C ) Humidity (%) Winds ( mph kmh ) Pressure ( in mb ) Visibility ( mi km ) Precip ( " mm )
12:53 am 00:53 Clear 39 3.9 37 2.8 93 93 N N/A 30.01 1016 10 16 N/A
1:53 am 01:53 Clear 39 3.9 37 2.8 93 93 N N/A 30.00 1016 10 16 N/A
2:53 am 02:53 Clear 38 3.3 36 2.2 93 93 N N/A 29.99 1016 10 16 N/A
3:53 am 03:53 Clear 37 2.8 35 1.7 93 93 N N/A 30.00 1016 10 16 N/A
4:50 am 04:50 Partly Cloudy 36 2 34 1 93 93 N N/A 30.03 1017 7 11 N/A
4:53 am 04:53 Mostly Cloudy with Mist and Fog 35 1.7 34 1.1 96 96 N N/A 30.00 1016 5 8 N/A
4:59 am 04:59 Mostly Cloudy with Mist and Fog 36 2.2 35 1.7 97 97 N N/A 30.03 1017 2 3 N/A
5:06 am 05:06 Mostly Cloudy with Mist and Fog 36 2.2 35 1.7 97 97 N N/A 30.03 1017 1 1 N/A
5:26 am 05:26 Mostly Clear with Mist and Fog 36 2.2 34 1.1 93 93 N N/A 30.03 1017 1 2 N/A
5:30 am 05:30 Partly Cloudy with Mist and Fog 36 2.2 35 1.7 97 97 N N/A 30.03 1017 4 6 N/A
5:37 am 05:37 Partly Cloudy with Mist and Fog 35 1.7 34 1.1 96 96 E 3 6 30.04 1017 2 2 N/A
5:39 am 05:39 Mostly Cloudy with Mist and Fog 35 1.7 34 1.1 96 96 E 3 6 30.04 1017 1 1 N/A
5:49 am 05:49 Mostly Cloudy with Fog 36 2 34 1 93 93 N N/A 30.04 1017 0 0 N/A
5:53 am 05:53 Mostly Cloudy with Fog 35 1.7 34 1.1 96 96 N N/A 30.01 1016 0 0 N/A
6:21 am 06:21 Mostly Cloudy with Mist and Fog 35 1.7 34 1.1 96 96 N N/A 30.05 1017 1 2 N/A
6:25 am 06:25 Partly Cloudy with Mist and Fog 35 1.7 34 1.1 96 96 N N/A 30.06 1018 2 3 N/A
6:32 am 06:32 Mostly Clear 34 1.1 33 0.6 97 97 N N/A 30.06 1018 9 14 N/A
6:53 am 06:53 Clear 35 1.7 33 0.6 93 93 N N/A 30.02 1017 10 16 N/A
7:53 am 07:53 Clear 34 1.1 33 0.6 97 97 N N/A 30.03 1017 10 16 N/A
8:53 am 08:53 Sunny 37 2.8 35 1.7 93 93 N N/A 30.05 1018 10 16 N/A
9:53 am 09:53 Sunny 43 6.1 39 3.9 86 86 ENE 5 7 30.06 1018 10 16 N/A
10:53 am 10:53 Sunny 48 8.9 40 4.4 74 74 E 6 9 30.05 1018 10 16 N/A
11:53 am 11:53 Sunny 52 11.1 37 2.8 57 57 VRB 5 7 30.04 1017 10 16 N/A
12:53 pm 12:53 Sunny 54 12.2 39 3.9 57 57 E 7 11 30.01 1016 10 16 N/A
1:53 pm 13:53 Sunny 56 13.3 38 3.3 51 51 E 8 13 29.97 1015 10 16 N/A
2:53 pm 14:53 Sunny 58 14.4 39 3.9 50 50 E 7 11 29.95 1014 10 16 N/A
3:53 pm 15:53 Sunny 59 15 41 5 51 51 ENE 9 15 29.91 1013 10 16 N/A
4:53 pm 16:53 Sunny 58 14.4 41 5 53 53 ENE 9 15 29.89 1012 10 16 N/A
5:53 pm 17:53 Sunny 57 13.9 42 5.6 58 58 E 9 15 29.88 1012 10 16 N/A
6:53 pm 18:53 Clear 53 11.7 42 5.6 66 66 ESE 3 6 29.90 1013 10 16 N/A
7:53 pm 19:53 Clear 52 11.1 43 6.1 72 72 ENE 6 9 29.88 1012 10 16 N/A
8:53 pm 20:53 Clear 50 10 44 6.7 80 80 ENE 10 17 29.87 1011 10 16 N/A
9:53 pm 21:53 Clear 48 8.9 43 6.1 83 83 ENE 12 19 29.84 1011 10 16 N/A
10:53 pm 22:53 Clear 47 8.3 43 6.1 86 86 E 12 19 29.83 1010 10 16 N/A
11:53 pm 23:53 Clear 47 8.3 43 6.1 86 86 ENE 10 17 29.80 1009 10 16 N/A

Powered by AerisWeather